Regional Weather Roundup
Issued by NWS Upton, NY

Current Version | Previous Version | Graphics & Text | Print | Product List | Glossary Off
Versions: 1 2 3 4 5 6 7 8 9 10 11 12 13 14 15 16 17 18 19 20 21 22 23 24 25 26 27 28 29 30 31 32 33 34 35 36 37 38 39 40 41 42 43 44 45 46 47 48 49 50

000
ASUS41 KOKX 041808
RWROKX

REGIONAL WEATHER ROUNDUP
NATIONAL WEATHER SERVICE NEW YORK NY
200 PM EDT MON MAY 04 2015

NOTE: "FAIR" INDICATES FEW OR NO CLOUDS BELOW 12,000 FEET WITH NO
SIGNIFICANT WEATHER AND/OR OBSTRUCTIONS TO VISIBILITY.

NYZ071-072-176-178-NJZ106-104-041900-
NEW YORK CITY METRO AREA


CITY           SKY/WX    TMP DP  RH WIND       PRES   REMARKS
CENTRAL PARK   MOSUNNY   82  46  28 S9        30.20S
LAGUARDIA APRT MOSUNNY   80  46  30 S14       30.17S
KENNEDY INTL   MOSUNNY   73  49  42 S9        30.20F
NEWARK/LIBERTY PTSUNNY   84  40  21 S12G20    30.16F
BRNX BOT. GARD   N/A     81  48  32 S12       30.19R
TETERBORO      MOSUNNY   82  40  22 S18       30.14F
$$

NYZ177-179-078>081-041900-
LONG ISLAND NEW YORK

CITY           SKY/WX    TMP DP  RH WIND       PRES   REMARKS
FARMINGDALE    SUNNY     73  49  42 S14       30.20F
ISLIP          MOSUNNY   71  47  42 S15       30.19F
SHIRLEY        SUNNY     69  48  47 S10       30.22S
WESTHAMPTON    SUNNY     67  47  48 SW12      30.23S
MONTAUK POINT    N/A     66  47  50 S12G21    30.21F
$$

NYZ052-065-067-041900-
HUDSON VALLEY

CITY           SKY/WX    TMP DP  RH WIND       PRES   REMARKS
WHITE PLAINS   SUNNY     80  43  26 S16G23    30.16F
NEWBURGH       MOSUNNY   82  43  24 W17G29    30.14F
MONTGOMERY     MOSUNNY   84  41  21 S15G24    30.11F
POUGHKEEPSIE   SUNNY     85  36  17 SW15G24   30.11F
ALBANY         MOSUNNY   84  37  18 S9G17     30.07F
$$

NJZ001-105-106-008-010-013-015-019>022-104-041900-
NEW JERSEY

CITY           SKY/WX    TMP DP  RH WIND       PRES   REMARKS
NEWARK/LIBERTY PTSUNNY   84  40  21 S12G20    30.16F
TETERBORO      MOSUNNY   82  40  22 S18       30.14F
CALDWELL       MOSUNNY   83  37  19 SW10G21   30.16F
MORRISTOWN     MOSUNNY   84  41  21 W10G22    30.16F
SOMERVILLE     MOSUNNY   85  39  19 SW8G20    30.14F
SUSSEX         SUNNY     83  40  21 S14G22    30.15F
ANDOVER          N/A     82  38  20 SW10G22   30.16F
TRENTON        MOSUNNY   83  39  21 SW10G28   30.18F
MILLVILLE      SUNNY     82  41  23 S9G20     30.22F
ATLANTIC CITY  MOSUNNY   83  38  20 S17G23    30.21F
WRIGHTSTOWN    PTSUNNY   84  41  22 W14       30.16F
TOMS RIVER     PTSUNNY   82  37  20 SW5G20    30.19S
BELMAR         PTSUNNY   82  43  24 S10       30.19F
$$

PAZ047>061-062-071-041900-
EASTERN PENNSYLVANIA

CITY           SKY/WX    TMP DP  RH WIND       PRES   REMARKS
PHILADELPHIA   MOSUNNY   84  42  22 S16       30.20F
ALLENTOWN      SUNNY     84  42  22 SW12G24   30.17F
SCRANTON       MOSUNNY   83  37  19 SW18G24   30.13F
$$

CTZ002-004>006-009-010-012-RIZ004-006-007-MAZ004-011-015-041900-
SOUTHERN NEW ENGLAND
 IN CT

CITY           SKY/WX    TMP DP  RH WIND       PRES   REMARKS
BRADLEY INTL   MOSUNNY   86  35  16 S16G26    30.10F
HARTFORD       MOSUNNY   83  42  23 S14G24    30.12F
DANBURY        MOSUNNY   81  39  22 S14G30    30.16F
WTRBRY/OXFORD  MOSUNNY   81  43  26 SW21G30   30.17F
BRIDGEPORT     SUNNY     65  53  65 E7        30.18F
MERIDEN        FAIR      82  45  27 S14       30.15F
NEW HAVEN      SUNNY     70  51  51 SE8       30.18F
CHESTER        FAIR      79  48  34 S10G16    30.19F
GROTON         SUNNY     62  49  62 S7        30.19F
WILLIMANTIC    PTSUNNY   81  36  19 S14G22    30.14F

 IN RI

CITY           SKY/WX    TMP DP  RH WIND       PRES   REMARKS
PROVIDENCE     MOSUNNY   67  49  52 SE17      30.16F
BLOCK ISLAND   SUNNY     61  45  55 SW22      30.21F
WESTERLY       SUNNY     66  48  52 S9        30.21S

 IN MA

CITY           SKY/WX    TMP DP  RH WIND       PRES   REMARKS
BOSTON         MOSUNNY   80  43  26 S10       30.11F
WORCESTER      PTSUNNY   80  34  19 W21G29    30.14F
WESTFIELD      PTSUNNY   84  35  17 SW10      30.10F
PROVINCETOWN   SUNNY     66  48  52 S16       30.18F
NANTUCKET      SUNNY     58  50  75 S13       30.24F
$$

ANZ330-335-338-340-345-350-353-355-041900-
COASTAL MARINE OBSERVATIONS


STATION/POSITION TIME  SKY/WX   TEMP    WIND        PRES    VSBY  WAVE
                                AIR SEA DIR/SP/G                  HT/PER
                 (UTC)          (F)     (DEG/KT/KT) (MB)    (MI)  (FT/S)
NY HARB ENTRANCE 1750            57 53  180/ 14/ 16 1022.1          3/11
4S FIRE IS       1703               51                N/A           3/ 8
20S FIRE ISLAND  1750            52 49  180/ 12/ 14 1023.3          3/ 8
GREAT SOUTH BAY  1700            56 59  220/ 10/ 12   N/A
23SW MTP         1750            51 46  210/ 10/ 12 1023.3          3/ 8
HUDSON CANYON    NOT AVBL
EXECUTION ROCKS  NOT AVBL
WESTERN LI SOUND NOT AVBL
CENTRAL LI SOUND NOT AVBL
EASTERN LI SOUND 1700            51     130/  6/  8   N/A
ROBBINS REEF     1700            66     180/ 18/ 19 1020.9
$$


>>>>>>>>>>>>>>>>>>>>>>>>>>>> KEY <<<<<<<<<<<<<<<<<<<<<<<<<<<
>                                                          <
>     SKY/WX - SKY CONDITION/PRESENT WEATHER               <
>     TMP    - TEMPERATURE IN FAHRENHEIT                   <
>     DP     - DEWPOINT IN FAHRENHEIT                      <
>     RH     - RELATIVE HUMIDITY IN PERCENT                <
>     WIND   - DIRECTION AND SPEED IN MPH                  <
>     PRES   - MEAN SEA LEVEL PRESSURE IN INCHES OF HG     <
>     WCI    - WIND CHILL INDEX                            <
>     VSB    - VISIBILITY IN MILES                         <
>     HX     - HEAT INDEX                                  <
>     TC     - TEMPERATURE IN CELSIUS                      <
>     VRB    - VARIABLE WIND DIRECTION                     <
>                                                          <
>>>>>>>>>>>>>>>>>>>>>>>>>>>> KEY <<<<<<<<<<<<<<<<<<<<<<<<<<<





USA.gov is the U.S. government's official web portal to all federal, state and local government web resources and services.